Weather History for Freeport, IL

Change the Weather History Date:

Saturday, February 9, 2013

  Actual Average Record
Temperature  
Mean Temperature 26 °F -  
Max Temperature 33 °F 27 °F 57 °F (1990)
Min Temperature 18 °F 7 °F -17 °F (1979)
Degree Days  
Heating Degree Days 40    
Moisture  
Dew Point 24 °F    
Average Humidity 88    
Maximum Humidity 93    
Minimum Humidity 80    
Precipitation  
Precipitation 0.00 in - - ()
Sea Level Pressure  
Sea Level Pressure 30.24 in    
Wind  
Wind Speed 9 mph (SE)    
Max Wind Speed 22 mph    
Max Gust Speed 24 mph    
Visibility 8 miles    
Events      
Averages and records for this station are not official NWS values.
T = Trace of Precipitation, MM = Missing Value Source: NWS Daily Summary

Daily Weather History Graph

Daily Weather History Graph

Search for Another Location

Airport:

Trip Planner

Search our weather history database for the weather conditions in past years. The results will help you decide how hot, cold, wet, or windy it might be!

Date:

Astronomy

Feb. 09, 2013 Rise Set
Actual Time 7:02 AM CST 5:23 PM CST
Civil Twilight 6:33 AM CST 5:52 PM CST
Nautical Twilight 5:59 AM CST 6:25 PM CST
Astronomical Twilight 5:27 AM CST 6:58 PM CST
Moon 6:13 AM CST (2/9) 5:06 PM CST (2/9)
Length of Visible Light 11h 19m
Length of Day
10h 21m
Waning Crescent, 0% of the Moon is Illuminated
Feb 9
Waning Crescent
Feb 10
New
Feb 17
First Quarter
Feb 25
Full
Mar 4
Last Quarter

Hourly Weather History & Observations

Time (CST) Temp. Windchill Dew Point Humidity Pressure Visibility Wind Dir Wind Speed Gust Speed Precip Events Conditions
12:15 AM 18.5 °F 13.3 °F 16.2 °F 91% 30.37 in 7.0 mi East 3.5 mph - N/A   Overcast
12:35 AM 18.5 °F 13.3 °F 16.2 °F 91% 30.37 in 5.0 mi ESE 3.5 mph - N/A   Overcast
12:55 AM 18.5 °F 13.3 °F 16.2 °F 91% 30.38 in 4.0 mi SE 3.5 mph - N/A   Overcast
1:15 AM 19.9 °F 13.4 °F 17.6 °F 91% 30.38 in 4.0 mi South 4.6 mph - N/A   Overcast
1:35 AM 21.2 °F 12.6 °F 18.9 °F 91% 30.38 in 5.0 mi SSE 6.9 mph - N/A   Overcast
1:55 AM 21.2 °F 11.7 °F 18.9 °F 91% 30.38 in 5.0 mi SSE 8.1 mph - N/A   Overcast
2:15 AM 21.2 °F 12.6 °F 18.9 °F 91% 30.38 in 5.0 mi SSE 6.9 mph - N/A   Overcast
2:35 AM 21.2 °F 11.7 °F 18.9 °F 91% 30.37 in 7.0 mi SE 8.1 mph - N/A   Overcast
2:55 AM 21.2 °F 14.9 °F 18.9 °F 91% 30.37 in 7.0 mi SE 4.6 mph - N/A   Overcast
3:15 AM 21.2 °F 13.6 °F 19.0 °F 91% 30.36 in 10.0 mi SSE 5.8 mph - N/A   Overcast
3:35 AM 21.7 °F 12.3 °F 19.4 °F 91% 30.36 in 10.0 mi SSE 8.1 mph - N/A   Overcast
3:55 AM 22.1 °F 14.7 °F 20.1 °F 92% 30.36 in 7.0 mi SSE 5.8 mph - N/A   Overcast
4:15 AM 22.5 °F 15.1 °F 20.3 °F 91% 30.35 in 5.0 mi SE 5.8 mph - N/A   Overcast
4:35 AM 23.7 °F 15.6 °F 21.7 °F 92% 30.36 in 7.0 mi SE 6.9 mph - N/A   Overcast
4:55 AM 23.7 °F 14.7 °F 21.7 °F 92% 30.36 in 7.0 mi SE 8.1 mph - N/A   Overcast
5:15 AM 23.7 °F 16.6 °F 21.7 °F 92% 30.36 in 7.0 mi SE 5.8 mph - N/A   Overcast
5:35 AM 23.7 °F 14.7 °F 21.7 °F 92% 30.36 in 7.0 mi SE 8.1 mph - N/A   Overcast
5:55 AM 23.7 °F 14.0 °F 21.7 °F 92% 30.34 in 10.0 mi SE 9.2 mph - N/A   Overcast
6:15 AM 23.7 °F 15.6 °F 21.7 °F 92% 30.34 in 10.0 mi SE 6.9 mph - N/A   Overcast
6:35 AM 23.7 °F 15.6 °F 21.7 °F 92% 30.35 in 10.0 mi SE 6.9 mph - N/A   Overcast
6:55 AM 24.1 °F 13.7 °F 22.1 °F 92% 30.35 in 10.0 mi SE 10.4 mph - N/A   Overcast
7:15 AM 24.4 °F 15.6 °F 22.5 °F 92% 30.35 in 10.0 mi SSE 8.1 mph - N/A   Overcast
7:35 AM 24.6 °F 15.1 °F 22.6 °F 92% 30.35 in 10.0 mi SSE 9.2 mph - N/A   Overcast
7:55 AM 24.8 °F 13.4 °F 22.8 °F 92% 30.34 in 10.0 mi SSE 12.7 mph - N/A   Overcast
8:15 AM 24.8 °F 13.4 °F 22.8 °F 92% 30.34 in 10.0 mi SSE 12.7 mph - N/A   Overcast
8:35 AM 25.7 °F 14.6 °F 23.0 °F 89% 30.33 in 10.0 mi SSE 12.7 mph - N/A   Overcast
8:55 AM 26.2 °F 16.4 °F 23.5 °F 90% 30.34 in 10.0 mi SSE 10.4 mph - N/A   Overcast
9:15 AM 26.2 °F 13.0 °F 23.0 °F 88% 30.32 in 10.0 mi SSE 18.4 mph 21.9 mph N/A   Overcast
9:35 AM 26.6 °F 15.7 °F 23.2 °F 87% 30.33 in 10.0 mi SSE 12.7 mph - N/A   Overcast
9:55 AM 27.1 °F 14.9 °F 23.4 °F 86% 30.32 in 10.0 mi SSE 16.1 mph - N/A   Overcast
10:15 AM 27.3 °F 16.1 °F 23.5 °F 86% 30.32 in 10.0 mi SSE 13.8 mph - N/A   Overcast
10:35 AM 27.5 °F 14.6 °F 23.5 °F 85% 30.31 in 10.0 mi SSE 18.4 mph - N/A   Overcast
10:55 AM 28.8 °F 18.4 °F 24.8 °F 85% 30.30 in 10.0 mi SSE 12.7 mph - N/A   Overcast
11:15 AM 28.8 °F 17.0 °F 24.8 °F 85% 30.29 in 10.0 mi SSE 16.1 mph - N/A   Overcast
11:35 AM 28.8 °F 15.2 °F 24.8 °F 85% 30.27 in 10.0 mi SSE 21.9 mph - N/A   Overcast
11:55 AM 28.8 °F 16.2 °F 24.8 °F 85% 30.25 in 10.0 mi SE 18.4 mph - N/A   Overcast
12:15 PM 29.1 °F 16.0 °F 25.0 °F 85% 30.24 in 10.0 mi SE 20.7 mph 24.2 mph N/A   Overcast
12:35 PM 30.0 °F 17.2 °F 26.2 °F 86% 30.22 in 7.0 mi SE 20.7 mph - N/A   Overcast
12:55 PM 30.2 °F 17.8 °F 26.2 °F 85% 30.23 in 10.0 mi SSE 19.6 mph - N/A   Overcast
1:15 PM 31.5 °F 20.5 °F 27.3 °F 85% 30.23 in 10.0 mi SSE 16.1 mph - N/A   Overcast
1:35 PM 31.5 °F 20.5 °F 27.0 °F 83% 30.23 in 10.0 mi SSE 16.1 mph - N/A   Overcast
1:55 PM 31.5 °F 21.8 °F 27.3 °F 85% 30.22 in 10.0 mi SSE 12.7 mph - N/A   Overcast
2:15 PM 31.5 °F 22.9 °F 27.1 °F 84% 30.22 in 10.0 mi South 10.4 mph - N/A   Overcast
2:35 PM 31.5 °F 21.4 °F 27.0 °F 83% 30.21 in 10.0 mi SSE 13.8 mph - N/A   Overcast
2:55 PM 31.5 °F 22.3 °F 27.3 °F 85% 30.21 in 10.0 mi SSE 11.5 mph - N/A   Overcast
3:15 PM 32.0 °F 24.2 °F 26.6 °F 80% 30.20 in 10.0 mi SSE 9.2 mph - N/A   Overcast
3:35 PM 31.5 °F 22.3 °F 27.3 °F 85% 30.19 in 10.0 mi SE 11.5 mph - N/A   Overcast
3:55 PM 31.5 °F 22.3 °F 27.1 °F 84% 30.17 in 10.0 mi SSE 11.5 mph - N/A   Overcast
4:15 PM 31.5 °F 22.3 °F 27.3 °F 85% 30.16 in 10.0 mi SE 11.5 mph - N/A   Overcast
4:35 PM 31.5 °F 22.3 °F 27.3 °F 85% 30.16 in 10.0 mi SE 11.5 mph - N/A   Overcast
4:55 PM 31.5 °F 22.3 °F 27.3 °F 85% 30.15 in 10.0 mi ESE 11.5 mph - N/A   Overcast
5:15 PM 31.5 °F 22.3 °F 27.3 °F 85% 30.14 in 10.0 mi ESE 11.5 mph 18.4 mph N/A   Overcast
5:35 PM 31.5 °F 23.5 °F 27.3 °F 85% 30.15 in 10.0 mi ESE 9.2 mph - N/A   Overcast
5:55 PM 31.5 °F 22.9 °F 27.5 °F 85% 30.14 in 10.0 mi ESE 10.4 mph - N/A   Overcast
6:15 PM 31.5 °F 22.9 °F 27.5 °F 85% 30.13 in 10.0 mi ESE 10.4 mph - N/A   Overcast
6:35 PM 31.5 °F 22.3 °F 27.9 °F 87% 30.12 in 10.0 mi ESE 11.5 mph - N/A   Overcast
6:55 PM 32.0 °F 23.0 °F 28.4 °F 87% 30.12 in 10.0 mi ESE 11.5 mph - N/A   Overcast
7:15 PM 32.9 °F 24.1 °F 29.7 °F 88% 30.11 in 10.0 mi ESE 11.5 mph - N/A   Overcast
7:35 PM 33.8 °F 25.8 °F 30.2 °F 87% 30.12 in 10.0 mi ESE 10.4 mph - N/A   Overcast
7:55 PM 31.5 °F 22.9 °F 28.0 °F 87% 30.12 in 10.0 mi ESE 10.4 mph - N/A   Scattered Clouds
8:15 PM 30.2 °F 21.9 °F 27.1 °F 88% 30.11 in 10.0 mi ESE 9.2 mph - N/A   Clear
8:35 PM 26.1 °F 20.5 °F 23.2 °F 89% 30.11 in 7.0 mi East 4.6 mph - N/A   Clear
8:55 PM 26.2 °F 19.6 °F 23.7 °F 90% 30.11 in 7.0 mi East 5.8 mph - N/A   Clear
9:15 PM 26.4 °F 19.8 °F 23.9 °F 90% 30.10 in 7.0 mi ENE 5.8 mph - N/A   Clear
9:35 PM 25.0 °F 18.1 °F 22.6 °F 91% 30.09 in 5.0 mi ENE 5.8 mph - N/A   Clear
9:55 PM 23.7 °F 14.7 °F 21.2 °F 90% 30.08 in 5.0 mi ENE 8.1 mph - N/A   Clear
10:15 PM 23.9 °F 15.8 °F 22.1 °F 93% 30.08 in 5.0 mi ENE 6.9 mph - N/A   Clear
10:35 PM 24.3 °F 16.3 °F 22.1 °F 91% 30.06 in 5.0 mi ENE 6.9 mph - N/A   Scattered Clouds
10:55 PM 24.6 °F 16.7 °F 22.6 °F 92% 30.06 in 5.0 mi East 6.9 mph - N/A   Scattered Clouds
11:15 PM 23.7 °F 15.6 °F 21.7 °F 92% 30.05 in 5.0 mi ENE 6.9 mph - N/A   Scattered Clouds
11:35 PM 23.7 °F 15.6 °F 21.7 °F 92% 30.05 in 5.0 mi ENE 6.9 mph - N/A   Clear
11:55 PM 22.8 °F 15.5 °F 20.8 °F 92% 30.05 in 4.0 mi ENE 5.8 mph - N/A   Clear